This is the latest recevied weather packets stored in our database for station/object DL3NBY. If no packets are shown the sender has not sent any weather packets the latest 10 day(s).
| Time | Temp. | Humidity | Pressure | Rain* | Wind** | Luminosity | Snow |
|---|---|---|---|---|---|---|---|
| 1778215253 | 8.33° C | 99% | 1016 hPa | 0 mm | - | - | - |
| 1778208073 | 8.33° C | 99% | 1015.7 hPa | 0 mm | - | - | - |
| 1778207470 | 8.33° C | 99% | 1015.7 hPa | 0 mm | - | - | - |
| 1778202644 | 8.33° C | 99% | 1015.8 hPa | 0 mm | - | - | - |
| 1778200232 | 8.33° C | 99% | 1015.9 hPa | 0 mm | - | - | - |
| 1778199629 | 8.33° C | 99% | 1016 hPa | 0.25 mm | - | - | - |
| 1778185816 | 8.89° C | 99% | 1015.6 hPa | 0 mm | - | - | - |
| 1778184067 | 9.44° C | 99% | 1015.2 hPa | 0 mm | - | - | - |
| 1778178035 | 10° C | 98% | 1014.2 hPa | 0.25 mm | - | - | - |
| 1778176245 | 10.56° C | 98% | 1013.9 hPa | 0.25 mm | - | - | - |
| 1778175622 | 10.56° C | 97% | 1013.9 hPa | 0.25 mm | - | - | - |
| 1778172667 | 11.11° C | 95% | 1013.5 hPa | 0 mm | - | - | - |
| 1778168444 | 10.56° C | 97% | 1013.4 hPa | 0 mm | - | - | - |
| 1778160080 | 10.56° C | 97% | 1013 hPa | 0 mm | - | - | - |
| 1778156440 | 10.56° C | 94% | 1012.6 hPa | 0 mm | - | - | - |
| 1778155252 | 10.56° C | 96% | 1012.5 hPa | 0 mm | - | - | - |
| 1778152845 | 11.11° C | 94% | 1012.2 hPa | 0 mm | - | - | - |
| 1778148621 | 11.11° C | 95% | 1011.6 hPa | 0 mm | - | - | - |
| 1778143244 | 10.56° C | 98% | 1010.7 hPa | 0 mm | - | - | - |
| 1778142641 | 10.56° C | 98% | 1010.7 hPa | 0 mm | - | - | - |
| 1778135462 | 10° C | 99% | 1009.4 hPa | 0 mm | - | - | - |
| 1778131240 | 10° C | 99% | 1008.5 hPa | 1.52 mm | - | - | - |
| 1778129430 | 10° C | 99% | 1008.2 hPa | 1.27 mm | - | - | - |
| 1778120442 | 10.56° C | 99% | 1007 hPa | 1.52 mm | - | - | - |
| 1778115074 | 11.11° C | 98% | 1006.8 hPa | 0.51 mm | - | - | - |
* Rain latest hour (hover to see other rain measurements)
** Current wind speed in m/s (hover to see current wind gust speed)